Hamilton, OH

3:47 AM EDT on May 29, 2017 (GMT -0400)
Butler County Regional

Weather History for KHAO - January, 2014

Change the Weather History Date:

Thursday, January 23, 2014

  Actual Average (KLUK) Record (KLUK)
Temperature  
Mean Temperature 6 °F -  
Max Temperature 12 °F 43 °F 70 °F (1967)
Min Temperature 0 °F 23 °F -7 °F (1963)
Degree Days  
Heating Degree Days 59    
Moisture  
Dew Point -5 °F    
Average Humidity 64    
Maximum Humidity 79    
Minimum Humidity 53    
Precipitation  
Precipitation 0.00 in - - ()
Sea Level Pressure  
Sea Level Pressure 30.47 in    
Wind  
Wind Speed 10 mph (West)    
Max Wind Speed 15 mph    
Max Gust Speed 22 mph    
Visibility 10 miles    
Events      
Averages and records for this station are not official NWS values.
T = Trace of Precipitation, MM = Missing Value Source: NWS Daily Summary

Daily Weather History Graph

Daily Weather History Graph

Search for Another Location

Airport or City:

Trip Planner

Search our weather history database for the weather conditions in past years. The results will help you decide how hot, cold, wet, or windy it might be!

Date:

Astronomy

Jan. 23, 2014 Rise Set
Actual Time 7:52 AM EST 5:48 PM EST
Civil Twilight 7:23 AM EST 6:16 PM EST
Nautical Twilight 6:50 AM EST 6:49 PM EST
Astronomical Twilight 6:18 AM EST 7:21 PM EST
Moon 12:16 AM EST (1/23) 11:29 AM EST (1/23)
Length of Visible Light 10h 53m
Length of Day
9h 55m
Waning Gibbous, 55% of the Moon is Illuminated
Jan 23
Waning Gibbous
Jan 24
Last Quarter
Jan 30
New
Feb 6
First Quarter
Feb 14
Full

Hourly Weather History & Observations

Time (EST) Temp. Windchill Dew Point Humidity Pressure Visibility Wind Dir Wind Speed Gust Speed Precip Events Conditions
12:53 AM 12.0 °F -2.7 °F 1.0 °F 61% 30.15 in 10.0 mi West 12.7 mph 19.6 mph 0.00 in   Partly Cloudy
1:53 AM 10.9 °F -1.8 °F -0.0 °F 61% 30.17 in 10.0 mi West 9.2 mph - N/A   Clear
2:53 AM 9.0 °F -4.2 °F -0.0 °F 67% 30.21 in 10.0 mi West 9.2 mph - N/A   Clear
3:53 AM 8.1 °F -4.3 °F -0.9 °F 67% 30.25 in 10.0 mi West 8.1 mph - N/A   Clear
4:53 AM 7.0 °F -3.3 °F -0.9 °F 70% 30.28 in 10.0 mi Variable 5.8 mph - N/A   Clear
5:53 AM 6.1 °F -6.8 °F -2.0 °F 69% 30.31 in 10.0 mi WNW 8.1 mph - N/A   Clear
6:53 AM 5.0 °F -6.9 °F -2.9 °F 70% 30.35 in 10.0 mi West 6.9 mph - N/A   Mostly Cloudy
7:16 AM 3.9 °F -12.2 °F -4.0 °F 70% 30.33 in 10.0 mi WNW 11.5 mph - N/A   Partly Cloudy
7:53 AM 3.9 °F -14.3 °F -5.1 °F 66% 30.40 in 10.0 mi WNW 15.0 mph 21.9 mph N/A   Partly Cloudy
8:53 AM 1.9 °F -16.2 °F -7.1 °F 66% 30.44 in 10.0 mi WNW 13.8 mph 21.9 mph N/A   Clear
9:53 AM 3.0 °F -13.3 °F -7.1 °F 63% 30.49 in 10.0 mi WNW 11.5 mph 21.9 mph N/A   Clear
10:12 AM 3.0 °F -13.3 °F -7.1 °F 63% 30.45 in 10.0 mi West 11.5 mph 18.4 mph N/A   Mostly Cloudy
10:22 AM 3.0 °F -15.5 °F -8.0 °F 60% 30.46 in 10.0 mi WNW 15.0 mph - N/A   Scattered Clouds
10:53 AM 3.0 °F -14.8 °F -8.0 °F 60% 30.52 in 10.0 mi WNW 13.8 mph 19.6 mph N/A   Clear
11:53 AM 6.1 °F -8.7 °F -7.1 °F 55% 30.53 in 10.0 mi WNW 10.4 mph - N/A   Clear
12:53 PM 7.0 °F -7.5 °F -6.0 °F 55% 30.54 in 10.0 mi West 10.4 mph - N/A   Clear
1:53 PM 8.1 °F -7.7 °F -6.0 °F 53% 30.55 in 10.0 mi WNW 12.7 mph - N/A   Clear
2:53 PM 9.0 °F -0.9 °F -5.1 °F 53% 30.56 in 10.0 mi Variable 5.8 mph - N/A   Clear
3:53 PM 9.0 °F -3.2 °F -5.1 °F 53% 30.58 in 10.0 mi West 8.1 mph - N/A   Partly Cloudy
4:53 PM 8.1 °F -3.2 °F -5.1 °F 55% 30.60 in 10.0 mi West 6.9 mph - N/A   Clear
5:53 PM 7.0 °F -5.7 °F -5.1 °F 58% 30.63 in 10.0 mi West 8.1 mph - N/A   Mostly Cloudy
6:53 PM 5.0 °F -5.6 °F -5.1 °F 63% 30.64 in 10.0 mi West 5.8 mph - N/A   Clear
7:53 PM 3.0 °F -4.4 °F -5.1 °F 69% 30.66 in 10.0 mi West 3.5 mph - N/A   Partly Cloudy
8:53 PM 1.9 °F -7.6 °F -6.0 °F 69% 30.67 in 10.0 mi West 4.6 mph - N/A   Clear
9:53 PM -0.9 °F - -7.1 °F 75% 30.67 in 10.0 mi Calm Calm - N/A   Clear
10:53 PM 1.0 °F -8.7 °F -4.0 °F 79% 30.68 in 10.0 mi West 4.6 mph - N/A   Clear
11:53 PM -0.0 °F -11.6 °F -5.1 °F 79% 30.67 in 10.0 mi West 5.8 mph - N/A   Clear